CUBEBUG-2 (LO-74) (39440 NORAD) Tracking and Keplerian Element Data

This shows tracking and keplerian element data for the satellite.

Feedback or suggestion? Click here.




ElementValue
Catalog39440
NameCUBEBUG-2 (LO-74)
Epoch Orbit56691
Epoch Day159.59825539
Epoch Year2024
RAAN103.4751
Inclination97.8133
Eccentricity0.0068399
Argument of Perigee306.5367
Mean Anonmoly52.9562
Mean Motion14.83316176
Decay Rate7.038E-05
L11 39440U 13066AA 24159.59825539 .00007038 00000+0 83103-3 0 9998
L22 39440 97.8133 103.4751 0068399 306.5367 52.9562 14.83316176566915



Live tracking and technical data element details for CUBEBUG-2 (LO-74) (NORAD 39440). CUBEBUG-2 (LO-74) can be tracked NOW for your location showing map with azimuth and elevation plus other details from your city location.







IsCatalogInMostPopularTable: catalog: 39440, numindb: 632
Update: records affected: 1



GetName: 39440 CUBEBUG-2 (LO-74)

Hit Count: updated at: Fri, 14 Jun 2024 18:36:21 GMT